Temperature
20 20 19 20 25 27 27 27 28 27 27 26 25 26 26 25 25 23 21 20 19 19 19 19 19 19 19 19 19 19 19 19 19 18 18 18 18 18 18 18 18 18 18 18 18 18 18 18 18
20 19 20 23 28 27 27 27 27 27 26 25 25 25 25 24 22 21 20 19 19 19 19 19 19 19 19 19 19 19 19 19 18 18 18 18 18 18 18 18 18 18 18 18 18 18 18 18 18
20 20 22 27 28 27 27 27 27 26 26 26 25 25 24 23 21 21 20 19 19 19 19 19 19 19 19 19 19 19 18 18 18 18 18 18 18 18 18 18 18 18 18 18 18 18 18 18 18
20 22 25 28 28 28 28 28 27 27 26 26 25 25 23 21 21 20 20 20 20 19 19 18 19 19 19 19 19 19 18 18 18 18 18 18 18 18 18 18 18 18 18 18 18 18 18 18 18
21 25 28 28 28 28 28 27 27 27 27 26 26 25 23 20 20 20 20 20 20 19 19 18 19 19 19 19 19 19 18 18 18 18 18 18 18 18 18 18 18 18 18 18 18 18 18 18 18
25 28 28 28 28 28 28 27 27 27 27 26 25 25 22 20 20 20 20 20 20 19 19 18 19 19 19 19 19 19 18 18 18 18 18 18 18 18 18 18 18 18 18 18 18 18 18 18 18
26 28 28 28 28 28 28 27 27 28 27 26 25 25 22 21 20 20 20 20 19 19 19 19 18 19 19 19 19 18 18 18 18 18 18 18 18 18 18 18 18 18 18 18 18 18 18 18 18
26 29 29 29 28 28 28 27 27 27 26 25 25 25 23 21 20 20 20 19 19 19 19 19 19 18 18 18 18 18 18 18 18 18 18 18 18 18 18 18 18 18 18 18 18 18 18 18 18
26 29 29 29 29 28 28 28 27 26 26 25 24 24 23 21 20 20 20 20 19 19 19 19 19 19 18 18 18 18 18 18 18 18 18 18 18 17 17 18 18 18 18 18 18 18 18 18 18
28 29 29 29 29 29 28 28 27 27 26 25 24 22 21 21 21 21 21 20 20 19 19 19 19 19 19 18 18 18 18 18 18 18 18 17 17 18 17 18 18 18 18 18 18 18 18 18 18
29 29 29 29 29 28 28 28 27 28 27 26 25 23 22 21 21 21 21 21 20 20 19 19 19 19 19 18 18 18 18 18 18 17 17 18 17 17 17 18 18 17 18 17 17 18 17 17 17
29 29 29 29 28 28 28 28 28 27 27 26 25 23 22 22 22 22 21 21 20 20 19 19 19 18 18 18 18 18 18 18 18 18 17 17 17 17 17 17 17 17 17 17 17 17 17 17 17
30 30 29 28 28 28 28 28 27 26 25 25 24 23 23 22 22 21 21 20 20 20 19 19 19 19 19 18 18 18 18 18 18 17 17 17 17 17 17 17 17 17 17 17 17 17 17 17 17
30 29 29 29 29 28 28 28 27 26 25 24 24 23 23 22 22 21 21 20 20 19 19 19 19 19 19 18 18 18 18 18 18 18 17 17 17 17 17 17 17 17 17 17 17 17 17 17 17
29 30 30 30 29 29 29 28 28 26 25 25 24 23 23 22 22 21 21 20 20 19 19 19 19 18 19 18 18 18 18 18 17 17 17 17 17 17 17 17 17 17 17 17 17 17 17 17 17
30 30 30 30 30 29 29 28 28 26 26 25 24 23 22 22 22 21 21 20 20 19 19 19 19 19 18 18 18 18 18 17 17 17 17 17 17 17 17 17 17 17 17 17 17 17 17 17 17
30 30 30 30 30 30 29 29 28 26 26 26 25 24 23 22 21 21 20 20 20 19 19 19 19 19 19 18 18 18 18 17 17 17 17 17 17 17 17 17 17 17 17 17 17 17 17 17 17
30 30 30 30 30 30 29 29 29 27 26 26 25 24 23 23 22 21 20 20 19 19 19 19 19 19 19 18 18 18 18 18 17 17 17 17 17 17 17 17 17 17 17 17 17 17 17 17 17
31 30 30 30 31 30 30 29 29 28 27 26 25 24 24 23 22 21 20 20 19 19 19 19 19 19 18 18 18 18 18 17 17 17 17 17 17 17 17 17 17 17 17 17 17 17 17 17 17
30 30 30 30 30 30 30 30 30 29 27 27 26 25 24 23 22 21 20 20 19 19 19 19 19 18 18 18 18 18 17 17 17 17 17 17 17 17 17 17 17 17 17 17 17 17 17 17 17
31 31 30 30 30 30 30 30 30 29 28 27 26 25 24 23 23 21 20 20 19 19 19 19 19 18 18 18 18 17 17 17 17 17 17 17 17 17 17 17 17 17 17 17 17 17 17 17 17
31 31 31 30 30 31 30 30 30 30 29 28 26 25 24 24 23 22 21 20 20 20 19 19 19 19 18 18 18 17 17 17 17 17 17 17 17 17 17 17 17 17 17 17 17 17 17 17 17
31 31 31 30 30 30 30 30 31 30 29 29 27 26 25 24 23 22 21 21 20 20 19 19 19 19 18 18 18 17 17 17 17 17 17 17 17 17 17 17 17 16 17 17 16 16 17 17 17
31 30 30 30 30 29 30 30 30 31 30 29 28 26 25 24 23 22 22 21 20 20 19 19 19 19 18 18 18 17 17 17 17 17 17 17 17 17 17 17 16 16 16 16 16 16 16 16 17
31 30 30 29 29 30 30 30 30 30 30 29 28 27 25 24 23 23 22 21 20 20 19 19 19 18 18 18 18 17 17 17 17 17 17 17 17 17 17 16 16 16 16 16 16 16 16 16 16
31 31 30 29 29 30 30 30 30 30 29 28 27 27 25 24 24 23 22 21 20 19 19 19 19 18 18 18 18 17 17 17 17 17 17 16 16 16 16 16 16 16 16 16 16 16 16 16 16
31 31 32 31 30 30 30 30 30 29 29 28 27 26 25 25 24 23 22 21 20 19 19 19 18 18 18 18 18 17 17 17 17 16 16 16 16 16 16 16 16 16 16 16 16 16 16 16 16
31 31 31 30 29 29 30 30 30 29 29 29 28 27 25 24 24 23 22 21 20 20 19 18 18 18 18 18 17 17 17 17 17 16 16 16 16 16 16 16 16 16 16 16 16 16 16 16 16
30 30 30 30 30 29 29 30 30 29 29 29 28 26 25 24 23 23 22 21 21 20 19 18 18 18 17 17 17 17 17 17 17 16 16 16 16 16 16 16 16 16 16 16 16 15 15 15 15
31 30 30 29 29 29 29 29 30 29 29 28 27 26 24 23 23 22 21 21 20 20 19 18 18 18 18 17 17 17 17 16 16 16 16 16 16 16 16 16 15 15 15 15 15 15 15 15 15
Wind_Speed
10 8 4 4 3 3 9 8 8 7 6 7 7 5 7 8 6 5 4 5 5 6 7 9 9 9 10 10 10 11 12 12 12 12 12 11 11 10 10 9 9 9 9 8 8 8 8 8 8
6 4 4 4 1 7 9 8 9 9 7 5 6 6 7 8 7 6 5 6 6 6 7 9 10 9 10 10 10 10 11 12 12 11 11 10 10 9 8 8 8 8 8 8 8 8 8 7 7
5 5 3 0 6 9 8 8 9 8 6 5 5 6 6 6 5 4 6 7 6 7 8 11 10 10 10 10 10 10 10 11 11 10 10 9 9 8 8 7 7 7 7 7 7 7 7 7 6
4 4 3 3 9 10 8 7 7 6 6 5 5 7 6 6 4 6 8 7 7 8 9 12 11 11 11 10 10 10 10 10 10 9 9 8 7 7 7 7 7 7 6 6 6 6 6 6 6
4 3 2 7 10 9 8 7 5 6 6 5 5 7 7 6 7 9 9 8 8 9 9 12 12 11 10 10 9 9 10 10 9 8 7 7 7 7 6 6 6 6 6 5 5 5 5 5 5
3 2 3 7 9 7 6 5 5 7 7 6 6 7 6 6 8 9 9 8 9 9 9 11 12 10 10 9 9 9 9 9 8 7 7 6 6 6 6 6 6 6 5 4 3 4 4 4 3
2 2 5 7 7 7 6 4 4 6 6 5 4 6 6 7 8 8 9 9 9 8 8 8 9 10 10 10 9 9 9 8 8 7 7 6 6 5 5 5 5 5 4 3 3 2 2 3 3
3 1 5 6 6 7 5 4 4 5 6 6 3 4 6 8 9 9 9 9 8 7 7 6 7 7 7 9 10 9 8 8 7 7 6 5 5 6 6 6 5 4 3 3 3 2 1 1 2
4 1 6 7 6 6 5 4 4 4 6 5 5 5 9 12 10 9 8 8 7 6 5 5 6 5 5 6 8 8 8 7 6 6 6 4 4 5 5 6 5 3 2 2 2 2 0 2 4
2 4 7 6 5 4 3 3 3 4 5 6 7 9 12 12 11 10 8 7 7 6 6 4 4 5 4 4 5 5 5 5 4 4 4 3 3 3 3 6 4 3 2 2 2 1 4 4 3
1 4 5 4 3 3 2 3 2 2 3 3 7 11 13 12 10 9 8 7 6 6 6 5 4 4 4 3 3 3 3 3 3 4 2 2 2 2 2 3 4 3 2 1 2 1 0 1 1
1 3 3 3 2 2 2 3 3 2 4 4 7 12 13 12 10 9 8 7 7 6 6 5 4 3 3 2 2 2 2 2 2 3 2 2 1 1 2 1 1 1 2 2 1 1 1 1 1
0 2 3 2 2 2 3 3 3 4 4 6 9 12 12 11 10 8 7 6 6 6 5 5 4 3 2 2 1 2 2 2 2 2 2 1 1 1 1 1 0 0 1 1 1 1 1 1 1
2 1 1 1 2 3 3 3 3 4 6 8 10 11 10 10 9 8 7 7 6 5 5 5 4 4 3 3 2 1 2 2 1 1 1 1 1 1 1 1 0 0 0 1 1 0 0 1 1
2 2 1 2 2 2 3 3 3 5 7 8 9 9 9 9 8 8 7 6 6 6 5 5 4 4 4 3 3 2 2 2 2 1 2 1 1 1 1 1 1 0 0 1 1 0 0 0 0
4 3 1 2 2 2 4 1 4 6 8 8 8 8 8 8 8 7 7 6 5 5 5 5 4 5 4 3 3 2 2 1 1 1 1 2 2 2 2 2 1 1 1 1 1 1 0 0 0
4 2 2 1 2 3 4 0 4 6 7 7 8 9 8 8 8 7 7 6 6 6 5 5 5 5 4 4 3 3 2 1 1 1 1 2 2 2 3 2 1 2 1 1 1 1 0 0 0
2 3 3 2 1 4 4 3 3 6 7 7 8 8 8 9 8 8 7 7 6 6 6 5 6 5 5 4 3 3 2 2 2 1 1 2 2 3 3 2 2 2 1 1 0 0 1 1 1
6 6 5 3 1 4 5 5 5 6 7 7 8 8 8 8 8 8 8 7 7 6 6 6 6 5 5 4 4 3 3 2 2 2 2 2 2 2 3 2 1 2 1 1 1 2 2 2 1
7 7 4 1 1 4 4 5 5 7 9 8 8 8 8 8 8 8 8 8 7 7 6 6 6 6 6 4 4 3 2 2 2 2 2 3 3 3 3 2 2 1 1 2 2 2 2 1 1
8 7 6 4 2 5 5 5 5 6 8 8 8 8 8 8 9 9 9 9 8 7 7 6 6 6 6 6 4 3 3 3 3 3 3 3 3 3 2 2 3 2 3 2 2 3 3 2 2
8 5 6 5 6 4 4 4 3 5 7 9 9 9 9 9 8 9 9 9 8 8 7 7 7 6 6 6 5 5 4 3 3 2 2 3 3 3 3 3 3 3 3 2 4 3 3 3 3
6 3 5 6 8 7 6 6 2 5 5 7 9 10 10 9 9 8 8 8 8 7 7 7 7 7 6 6 6 5 5 3 3 3 2 3 2 3 3 3 3 4 3 3 3 3 4 3 3
5 5 5 7 7 8 5 6 3 2 2 3 7 9 9 9 8 8 8 7 7 7 7 7 7 7 7 7 6 6 5 4 3 3 3 3 3 2 2 3 3 4 3 3 4 4 4 4 3
9 9 6 6 7 5 2 6 2 2 0 2 4 7 8 8 8 8 7 7 7 8 8 8 8 7 7 7 6 6 5 5 4 4 4 4 3 3 2 2 3 3 3 4 4 4 4 4 4
10 11 8 7 7 5 4 5 1 2 1 1 3 6 8 8 8 7 7 7 7 8 8 8 8 8 7 7 6 5 5 4 4 4 4 4 3 3 2 3 3 3 3 3 3 4 4 4 4
8 9 9 10 10 9 5 4 3 3 2 3 4 6 7 7 7 6 7 7 7 8 8 8 8 7 7 7 6 5 5 4 4 4 5 4 4 3 3 3 3 3 3 3 4 3 4 4 5
8 7 7 9 9 10 8 7 3 3 3 3 4 5 6 6 6 6 6 7 7 8 8 8 7 7 7 6 6 5 5 5 4 4 3 3 3 3 3 3 3 3 3 3 3 4 3 4 4
8 8 8 8 9 10 10 4 1 2 2 2 3 4 4 4 5 6 6 6 7 8 8 8 8 7 7 6 6 5 5 5 5 5 4 4 3 3 3 4 4 3 3 3 3 4 3 4 5
9 9 10 9 8 9 10 5 3 1 1 1 2 3 3 3 4 5 6 6 6 6 7 7 7 7 7 6 6 6 5 5 6 5 5 5 4 4 4 4 4 4 4 3 3 4 4 5 5
Wind_Direction
184 187 208 239 225 88 64 61 62 68 64 56 59 58 56 44 36 64 73 93 95 103 112 120 117 114 113 112 111 113 115 116 119 124 129 129 131 132 132 133 133 132 132 135 137 137 136 136 140
178 186 229 242 42 78 69 64 66 60 72 76 71 68 67 62 55 85 100 102 111 109 115 116 118 117 114 114 113 112 113 115 118 123 126 130 129 127 128 130 130 131 134 137 139 141 140 139 140
184 219 260 251 58 62 73 70 75 76 73 69 76 59 54 57 68 89 101 118 116 108 110 114 119 118 117 115 113 112 113 113 116 119 124 127 127 126 123 124 125 127 131 135 140 141 144 143 144
211 227 235 78 72 63 68 78 81 84 74 65 84 82 74 53 63 98 116 123 113 108 108 109 114 116 118 118 116 114 113 112 115 118 119 122 122 122 120 119 117 120 124 128 137 144 145 151 158
240 257 116 85 75 72 70 73 74 72 72 78 80 86 79 65 86 107 119 117 113 110 108 110 107 109 115 117 116 118 115 115 115 115 117 121 122 121 120 122 119 119 121 124 133 139 150 157 162
246 242 77 79 81 76 78 71 75 78 83 90 93 92 83 94 107 113 114 113 109 109 108 111 111 109 112 114 114 114 114 114 115 112 110 115 121 122 123 123 120 121 123 126 136 141 148 152 160
308 39 67 73 85 85 75 65 63 80 86 85 97 97 107 111 116 118 114 109 106 106 106 110 119 120 118 112 111 113 111 108 106 108 111 113 118 120 121 126 122 119 119 117 126 137 150 158 168
299 335 69 71 74 77 87 84 63 65 80 91 94 99 121 132 133 126 118 112 108 107 109 110 110 111 119 120 116 113 108 106 106 108 111 118 126 133 131 139 118 112 111 106 109 111 126 162 167
272 56 60 54 58 76 99 96 83 85 102 94 73 76 117 135 139 133 125 119 117 117 118 116 113 112 110 111 117 123 123 120 128 126 127 146 132 124 134 102 105 107 102 91 96 103 169 209 174
288 51 50 41 49 73 99 98 109 123 111 113 106 106 127 142 147 143 137 133 131 130 126 119 115 114 111 106 114 121 121 117 117 105 118 116 98 103 109 113 123 117 115 131 108 163 221 228 173
16 43 40 41 51 80 102 111 116 113 98 122 137 141 146 150 153 149 145 143 138 133 131 133 122 112 106 108 116 111 113 117 121 110 114 107 110 114 126 128 145 147 164 112 123 195 108 75 44
43 26 9 37 63 100 97 106 111 83 67 96 138 147 153 158 159 157 153 148 142 140 141 140 131 125 113 107 120 135 127 124 117 120 142 129 125 116 103 116 102 134 110 62 41 54 52 53 69
23 20 34 70 114 112 109 100 106 86 93 118 135 149 156 159 159 156 153 150 150 150 146 141 139 142 142 139 165 138 134 131 133 128 129 165 155 136 121 121 94 29 67 103 99 87 47 15 127
10 3 53 99 136 142 131 110 123 108 125 134 144 153 159 160 160 159 163 164 163 161 157 153 160 157 161 163 164 153 157 150 154 155 128 182 157 163 187 170 176 283 348 19 351 50 28 51 68
251 235 157 130 159 168 186 144 125 132 146 148 154 157 159 165 166 168 170 172 170 169 168 167 172 167 169 172 170 168 178 161 160 153 148 183 186 183 228 235 230 277 243 203 213 175 64 68 86
232 237 192 131 190 192 230 84 122 145 163 162 163 165 169 170 171 171 170 172 172 174 173 179 177 170 169 174 181 178 174 161 177 187 180 195 218 225 244 251 250 247 249 225 195 209 172 76 347
215 282 4 107 186 207 233 335 126 164 176 174 176 177 178 174 176 174 173 175 176 178 178 181 183 180 176 169 177 186 170 174 200 213 207 198 221 232 246 259 283 258 253 249 255 121 272 9 326
296 318 331 338 185 222 231 241 163 177 191 186 183 183 184 185 182 178 180 179 178 179 184 188 190 186 183 177 177 185 179 183 194 210 203 222 230 240 260 235 238 261 252 247 298 15 251 254 260
289 294 307 322 296 254 249 247 219 190 201 198 191 190 191 191 181 178 182 182 181 184 189 196 200 189 190 191 193 190 189 196 199 209 202 225 239 240 254 268 219 249 238 242 225 220 218 231 242
259 272 286 301 273 265 273 264 234 202 206 208 201 197 197 190 183 185 186 186 187 189 194 198 203 197 196 195 202 201 196 204 203 213 192 225 229 242 223 239 246 233 220 210 215 231 253 243 233
254 266 282 296 273 230 262 247 213 198 205 206 207 203 199 195 190 188 189 193 192 194 197 201 202 202 201 199 198 188 184 201 195 203 198 209 217 223 248 234 250 251 243 217 222 225 236 249 232
255 267 271 266 262 257 251 279 195 190 198 202 205 202 200 196 193 189 191 194 196 197 197 198 197 198 198 198 200 196 201 209 212 214 196 199 209 219 223 229 233 243 245 227 231 218 239 248 243
264 275 260 262 266 268 240 267 216 179 212 203 203 202 200 195 194 193 195 196 197 194 193 188 187 191 194 195 194 201 212 215 212 208 186 211 196 215 223 225 231 233 238 235 242 234 243 241 251
217 220 230 241 252 254 251 267 272 181 216 200 191 194 196 193 192 192 192 190 190 188 189 185 183 188 191 193 193 203 211 215 220 224 213 218 209 213 217 226 238 241 242 231 231 232 230 242 252
218 238 246 238 233 247 206 261 287 45 206 224 194 188 187 189 190 190 190 190 190 189 188 184 181 184 187 190 196 205 211 213 219 232 227 239 231 225 222 239 242 245 240 238 236 231 241 236 236
228 245 258 274 276 275 207 255 295 94 110 197 198 183 181 190 192 190 189 189 188 188 186 184 183 185 187 192 197 205 215 223 224 228 242 237 250 246 226 225 236 248 250 245 236 240 237 232 233
232 241 265 272 275 274 263 249 229 165 188 188 180 178 185 190 189 185 177 178 179 181 183 184 181 183 188 192 196 201 208 224 233 229 234 241 248 245 227 231 235 245 252 256 250 247 246 240 240
253 255 251 257 269 275 268 254 251 195 204 188 186 184 183 184 184 178 172 172 177 178 179 182 182 186 190 192 199 197 201 210 224 235 241 252 251 255 250 244 241 239 244 251 258 254 249 245 244
212 227 246 261 268 275 280 279 46 189 214 200 182 169 165 173 177 173 171 171 173 177 180 185 188 192 196 199 200 206 207 211 216 224 230 236 239 237 239 243 242 241 244 249 253 263 257 250 247
236 239 239 251 259 262 278 280 103 141 186 182 167 148 149 162 166 167 165 167 173 181 184 187 195 196 197 198 199 205 211 216 218 220 224 228 229 231 227 234 237 241 243 247 251 257 257 256 251
Height
1503 1503 1504 1505 1500 1495 1498 1496 1493 1495 1497 1501 1501 1501 1502 1503 1506 1514 1515 1513 1513 1513 1512 1511 1511 1512 1513 1513 1514 1514 1514 1514 1515 1518 1520 1522 1524 1526 1527 1528 1529 1530 1531 1532 1533 1535 1536 1537 1538
1505 1504 1506 1503 1494 1500 1503 1497 1497 1499 1502 1503 1503 1504 1504 1508 1512 1514 1514 1514 1515 1515 1514 1514 1513 1514 1515 1516 1517 1517 1518 1519 1519 1521 1523 1525 1526 1527 1528 1529 1530 1531 1532 1533 1534 1535 1536 1537 1538
1505 1505 1506 1496 1495 1500 1503 1498 1499 1502 1503 1504 1505 1506 1508 1512 1514 1515 1516 1516 1516 1517 1516 1515 1515 1516 1517 1519 1519 1520 1521 1522 1523 1524 1525 1527 1528 1529 1529 1530 1531 1532 1533 1534 1534 1535 1536 1537 1538
1507 1507 1503 1496 1499 1498 1497 1499 1500 1502 1504 1505 1505 1508 1512 1516 1517 1517 1517 1517 1518 1518 1518 1517 1518 1519 1520 1520 1522 1523 1523 1524 1525 1526 1527 1528 1529 1530 1531 1531 1532 1533 1534 1534 1535 1536 1537 1538 1539
1508 1504 1497 1498 1499 1499 1499 1501 1502 1501 1504 1506 1507 1509 1515 1518 1518 1518 1519 1520 1521 1521 1521 1520 1520 1521 1522 1523 1524 1525 1525 1526 1527 1528 1529 1530 1531 1531 1532 1532 1533 1534 1534 1535 1536 1536 1537 1538 1539
1507 1500 1499 1502 1501 1500 1501 1503 1502 1503 1505 1508 1509 1510 1517 1519 1519 1520 1521 1522 1523 1523 1523 1523 1523 1523 1524 1525 1526 1526 1527 1528 1529 1529 1530 1531 1532 1532 1533 1533 1534 1534 1535 1536 1536 1537 1538 1539 1539
1506 1497 1499 1499 1501 1502 1503 1504 1503 1503 1505 1508 1510 1511 1517 1520 1521 1522 1522 1523 1524 1525 1525 1525 1526 1526 1526 1527 1527 1528 1529 1530 1530 1531 1531 1532 1533 1533 1533 1534 1535 1535 1536 1536 1537 1537 1538 1539 1539
1505 1498 1497 1497 1500 1502 1503 1505 1506 1505 1508 1511 1512 1512 1517 1521 1522 1523 1524 1525 1525 1526 1527 1527 1528 1528 1529 1529 1529 1530 1530 1531 1532 1532 1533 1533 1534 1534 1534 1535 1536 1536 1536 1537 1537 1537 1538 1539 1539
1505 1498 1500 1499 1500 1501 1503 1504 1507 1508 1509 1512 1513 1515 1518 1520 1522 1524 1525 1526 1527 1528 1529 1529 1530 1530 1531 1532 1531 1531 1532 1532 1533 1533 1534 1535 1536 1536 1536 1536 1536 1536 1537 1537 1537 1537 1538 1538 1539
1503 1500 1501 1499 1499 1500 1503 1504 1506 1507 1509 1512 1515 1517 1519 1521 1523 1525 1526 1527 1528 1529 1530 1530 1531 1532 1533 1533 1533 1533 1534 1534 1535 1535 1535 1536 1536 1537 1537 1536 1537 1537 1537 1537 1537 1537 1538 1538 1539
1501 1500 1499 1500 1501 1502 1503 1505 1506 1506 1507 1510 1514 1517 1520 1522 1524 1525 1527 1528 1529 1530 1531 1531 1532 1533 1533 1534 1534 1535 1535 1535 1536 1536 1536 1536 1537 1537 1538 1538 1538 1538 1538 1538 1537 1538 1538 1538 1539
1502 1501 1501 1501 1503 1503 1503 1504 1506 1507 1509 1511 1514 1516 1519 1522 1524 1525 1527 1528 1530 1531 1531 1532 1533 1533 1533 1534 1535 1535 1536 1536 1537 1536 1536 1537 1538 1538 1538 1538 1538 1538 1538 1538 1538 1537 1537 1537 1538
1501 1501 1502 1503 1503 1504 1505 1505 1507 1509 1511 1513 1515 1517 1519 1522 1524 1526 1528 1529 1530 1531 1532 1532 1533 1533 1533 1533 1534 1536 1536 1536 1537 1536 1537 1537 1538 1538 1538 1538 1538 1539 1539 1538 1538 1538 1537 1536 1537
1502 1502 1502 1502 1502 1504 1504 1506 1507 1510 1512 1514 1516 1518 1520 1522 1524 1526 1528 1529 1530 1531 1532 1532 1533 1533 1533 1534 1534 1535 1536 1536 1537 1537 1537 1537 1538 1538 1538 1538 1538 1538 1538 1538 1538 1538 1537 1536 1537
1503 1501 1500 1501 1501 1502 1503 1504 1506 1509 1512 1514 1516 1518 1520 1522 1524 1525 1527 1529 1530 1531 1531 1532 1533 1533 1533 1534 1534 1535 1536 1536 1537 1537 1537 1537 1537 1537 1538 1538 1538 1538 1538 1537 1537 1537 1537 1537 1537
1500 1498 1500 1499 1500 1501 1503 1506 1504 1508 1511 1513 1515 1518 1520 1522 1523 1525 1526 1528 1529 1530 1531 1531 1533 1533 1533 1533 1534 1535 1535 1536 1536 1537 1537 1536 1537 1537 1537 1538 1538 1537 1537 1537 1537 1537 1538 1538 1538
1497 1499 1499 1498 1498 1498 1500 1502 1503 1507 1509 1511 1514 1516 1518 1520 1522 1524 1525 1526 1528 1529 1529 1530 1531 1532 1533 1533 1533 1534 1534 1535 1536 1536 1536 1536 1536 1537 1537 1537 1537 1537 1537 1537 1537 1537 1537 1538 1538
1500 1499 1498 1498 1495 1497 1498 1499 1501 1505 1507 1509 1512 1514 1516 1518 1521 1523 1524 1525 1526 1527 1528 1529 1530 1531 1531 1532 1532 1533 1534 1534 1535 1535 1535 1535 1536 1536 1536 1537 1536 1536 1537 1537 1536 1536 1536 1537 1537
1495 1497 1497 1495 1493 1495 1496 1496 1497 1502 1505 1506 1509 1512 1514 1516 1519 1521 1523 1524 1525 1525 1526 1527 1528 1529 1530 1531 1531 1532 1533 1534 1534 1534 1534 1534 1535 1535 1535 1537 1536 1536 1536 1536 1536 1536 1536 1537 1537
1494 1497 1495 1493 1493 1495 1494 1493 1492 1497 1501 1503 1506 1509 1512 1514 1517 1519 1520 1522 1522 1523 1524 1525 1526 1527 1528 1529 1530 1531 1532 1532 1533 1533 1533 1533 1534 1534 1535 1534 1535 1535 1535 1535 1535 1535 1536 1536 1536
1492 1493 1493 1495 1493 1492 1493 1493 1490 1492 1497 1501 1504 1506 1509 1511 1513 1516 1518 1519 1520 1521 1522 1523 1524 1525 1526 1527 1529 1529 1530 1531 1532 1532 1531 1532 1532 1533 1533 1533 1534 1534 1535 1534 1534 1534 1534 1535 1535
1492 1486 1489 1492 1494 1492 1492 1498 1489 1487 1492 1496 1500 1503 1505 1508 1511 1513 1515 1517 1518 1519 1520 1521 1522 1523 1524 1525 1527 1528 1529 1530 1530 1530 1530 1530 1530 1531 1531 1532 1532 1532 1533 1533 1533 1533 1533 1533 1534
1487 1486 1488 1490 1491 1492 1489 1494 1487 1484 1489 1490 1494 1498 1502 1505 1508 1510 1512 1514 1515 1517 1518 1518 1519 1521 1522 1523 1524 1526 1527 1528 1529 1529 1529 1529 1529 1529 1530 1530 1530 1531 1531 1531 1531 1531 1531 1532 1532
1486 1488 1489 1488 1489 1501 1490 1493 1491 1481 1484 1485 1489 1495 1499 1502 1505 1508 1510 1512 1513 1514 1516 1517 1517 1519 1520 1521 1522 1524 1525 1526 1527 1527 1527 1528 1528 1528 1528 1528 1528 1529 1530 1529 1529 1529 1530 1530 1530
1486 1491 1499 1502 1500 1496 1486 1491 1488 1480 1482 1485 1488 1492 1496 1500 1503 1505 1507 1509 1510 1512 1513 1515 1516 1517 1518 1519 1521 1522 1523 1524 1525 1525 1526 1526 1526 1526 1526 1526 1526 1527 1527 1527 1527 1527 1528 1528 1528
1482 1483 1499 1509 1503 1490 1487 1489 1481 1480 1484 1486 1488 1490 1494 1498 1500 1502 1504 1506 1508 1509 1511 1513 1514 1515 1516 1517 1518 1520 1521 1523 1523 1523 1524 1524 1524 1524 1524 1524 1524 1524 1525 1525 1525 1526 1526 1526 1526
1480 1481 1475 1485 1488 1492 1485 1481 1478 1480 1482 1484 1486 1489 1492 1495 1498 1500 1502 1504 1506 1507 1509 1510 1511 1513 1514 1516 1517 1518 1519 1520 1521 1521 1521 1522 1521 1522 1522 1522 1522 1522 1522 1522 1523 1523 1523 1523 1523
1475 1474 1479 1485 1500 1502 1489 1484 1480 1479 1479 1481 1484 1488 1491 1494 1496 1498 1500 1502 1504 1505 1507 1508 1509 1511 1512 1514 1515 1516 1516 1517 1518 1519 1519 1519 1519 1519 1519 1520 1520 1520 1520 1520 1520 1521 1520 1520 1520
1479 1479 1480 1480 1482 1496 1498 1487 1471 1475 1477 1479 1482 1486 1490 1492 1494 1496 1498 1500 1502 1504 1505 1507 1508 1509 1510 1511 1512 1513 1514 1515 1515 1516 1516 1516 1516 1517 1517 1517 1517 1517 1517 1517 1517 1518 1517 1517 1517
1470 1472 1476 1486 1488 1485 1488 1485 1470 1474 1477 1480 1483 1487 1489 1492 1493 1495 1497 1498 1500 1502 1503 1504 1505 1507 1507 1508 1509 1510 1511 1512 1513 1513 1513 1513 1513 1514 1514 1514 1515 1515 1515 1515 1514 1514 1514 1514 1514